Tracking 28920 objects as of 24-May-2024
HD Live streaming from Space Station
objects crossing your sky now

STARLINK-3506

Track STARLINK-3506 now!
10-day predictions
STARLINK-3506 is classified as:


NORAD ID: 51751
Int'l Code: 2022-016AP
Perigee: 545.6 km
Apogee: 548.1 km
Inclination: 53.2 °
Period: 95.4 minutes
Semi major axis: 6917 km
RCS: Unknown
Launch date: February 21, 2022
Source: United States (US)
Launch site: AIR FORCE EASTERN TEST RANGE (AFETR)
Your satellite tracking list
Your tracking list is empty




NASA's NSSDC Master Catalog

Two Line Element Set (TLE):
1 51751U 22016AP  24144.86353975  .00001061  00000-0  84710-4 0  9993
2 51751  53.2178   8.7664 0001761 115.8977 244.2197 15.08847068125960
Source of the keplerian elements: AFSPC